Regional Weather Roundup
Issued by NWS

Home | Current Version | Previous Version | Text Only | Print | Product List | Glossary On
Versions: 1 2 3 4 5 6 7 8 9 10 11 12 13 14 15 16 17 18 19 20 21 22 23 24 25 26 27 28 29 30 31 32 33 34 35 36 37 38 39 40 41 42 43 44 45 46 47 48 49 50
559
ASUS44 KBMX 141310
RWRAL

ALABAMA REGIONAL WEATHER ROUNDUP
NATIONAL WEATHER SERVICE BIRMINGHAM AL
700 AM CST SUN FEB 14 2016

NOTE: "FAIR" INDICATES FEW OR NO CLOUDS BELOW 12,000 FEET
WITH NO SIGNIFICANT WEATHER AND/OR OBSTRUCTIONS TO VISIBILITY.

THE REMARK "TC" DENOTES TEMPERATURE IN DEGREES CELSIUS.

ALZ001>011-014-016>018-020-141400-
NORTH ALABAMA

CITY           SKY/WX    TMP DP  RH WIND       PRES   REMARKS
MUSCLE SHOALS  CLOUDY    29  12  49 SE10      30.29F WCI  20
HUNTSVILLE     MOCLDY    29  11  47 SE14      30.30F WCI  18
DECATUR        CLOUDY    26  14  60 SE7       30.30F WCI  18
HALEYVILLE     CLOUDY    28  11  48 SE7       30.29F WCI  21
GADSDEN        CLOUDY    27  13  55 E9        30.36S WCI  18
$$

ALZ012-013-022-023-030>036-040>044-141400-
WEST CENTRAL ALABAMA

CITY           SKY/WX    TMP DP  RH WIND       PRES   REMARKS
TUSCALOOSA     CLOUDY    31  12  45 VRB6      30.33F WCI  25
$$

ALZ015-024>027-033>036-040>044-141400-
CENTRAL ALABAMA

CITY           SKY/WX    TMP DP  RH WIND       PRES   REMARKS
BIRMINGHAM     PTCLDY    29   8  41 E8        30.34R WCI  21
MONTGOMERY     PTCLDY    31  16  54 E7        30.35R WCI  24
SHELBY CO ARPT PTCLDY    28  12  51 NE3       30.33R
MAXWELL AFB    CLOUDY    33  13  44 E7        30.34R WCI  27
GREENVILLE     FAIR      32  15  49 E6        30.31S WCI  26
$$

ALZ019-021-028-029-037-038-045>048-141400-
EAST CENTRAL ALABAMA

CITY           SKY/WX    TMP DP  RH WIND       PRES   REMARKS
ANNISTON       CLOUDY    28   9  44 E6        30.35S WCI  22
ALEXANDER CITY CLOUDY    28  14  55 CALM      30.34R
AUBURN         CLOUDY    30  11  45 E7        30.34R WCI  23
$$

ALZ051>064-141400-
SOUTHWEST ALABAMA

CITY           SKY/WX    TMP DP  RH WIND       PRES   REMARKS
MOBILE         PTCLDY    36  23  59 NE5       30.28S WCI  32
BROOKLEY FIELD CLOUDY    43  26  51 E17       30.30S
EVERGREEN      CLEAR     30  25  81 CALM      30.32R
$$

ALZ049-050-065>069-141400-
SOUTHEAST ALABAMA

CITY           SKY/WX    TMP DP  RH WIND       PRES   REMARKS
DOTHAN         CLEAR     34  16  47 E7        30.36R WCI  28
OZARK          CLEAR     31  18  59 NE6       30.33R WCI  25
TROY           CLOUDY    32  18  56 CALM      30.34R
EUFAULA        FAIR      30  22  72 CALM      30.34S
$$




USA.gov is the U.S. government's official web portal to all federal, state and local government web resources and services.